Weather History for KEAT - March, 2011

Change the Weather History Date:

Saturday, March 5, 2011

  Actual Average Record
Temperature  
Mean Temperature 33 °F 36 °F  
Max Temperature 41 °F 45 °F 61 °F (2005)
Min Temperature 24 °F 26 °F 16 °F (1976)
Degree Days  
Heating Degree Days 32 29  
Month to date heating degree days 159 150  
Since 1 July heating degree days 5441 5349  
Cooling Degree Days 0 0  
Month to date cooling degree days 0 0  
Year to date cooling degree days 0 0  
Moisture  
Dew Point 28 °F    
Average Humidity 88    
Maximum Humidity 100    
Minimum Humidity 56    
Precipitation  
Precipitation 0.06 in 0.05 in 0.75 in (2014)
Month to date precipitation 0.34 0.26  
Year to date precipitation 3.44 3.59  
Snow  
Snow 0.10 in 0.10 in - ()
Month to date snowfall 1.1 0.8  
Since 1 July snowfall 68.3 47.2  
Snow Depth 4.00 in    
Sea Level Pressure  
Sea Level Pressure 30.12 in    
Wind  
Wind Speed 4 mph (WNW)    
Max Wind Speed 10 mph    
Max Gust Speed -    
Visibility 7 miles    
Events Fog    
T = Trace of Precipitation, MM = Missing Value Source: NWS Daily Summary

Daily Weather History Graph

Daily Weather History Graph

Search for Another Location

Airport or City:

Trip Planner

Search our weather history database for the weather conditions in past years. The results will help you decide how hot, cold, wet, or windy it might be!

Date:

Astronomy

Mar. 05, 2011 Rise Set
Actual Time 6:33 AM PST 5:51 PM PST
Civil Twilight 6:03 AM PST 6:22 PM PST
Nautical Twilight 5:27 AM PST 6:57 PM PST
Astronomical Twilight 4:51 AM PST 7:33 PM PST
Moon 6:26 AM PST 7:12 PM PST
Length of Visible Light 12h 19m
Length of Day
11h 17m
New Moon, 1% of the Moon is Illuminated
Mar 5
New Moon
Mar 12
First Quarter
Mar 19
Full
Mar 26
Last Quarter
Apr 3
New

Hourly Weather History & Observations

Time (PST) Temp. Windchill Dew Point Humidity Pressure Visibility Wind Dir Wind Speed Gust Speed Precip Events Conditions
12:07 AM 30.2 °F 25.4 °F 30.2 °F 100% 30.10 in 3.0 mi West 4.6 mph - N/A   Overcast
12:09 AM 30.2 °F 25.4 °F 30.2 °F 100% 30.10 in 1.8 mi West 4.6 mph - N/A   Overcast
12:23 AM 30.2 °F 25.4 °F 30.2 °F 100% 30.10 in 0.5 mi West 4.6 mph - N/A Fog Light Freezing Fog
12:42 AM 30.2 °F 25.4 °F 30.2 °F 100% 30.10 in 1.0 mi West 4.6 mph - N/A   Overcast
12:48 AM 30.2 °F 25.4 °F 30.2 °F 100% 30.10 in 2.0 mi West 4.6 mph - N/A   Overcast
12:55 AM 30.9 °F 25.2 °F 30.0 °F 96% 30.13 in 6.0 mi WNW 5.8 mph - N/A   Overcast
1:55 AM 30.9 °F 24.3 °F 30.0 °F 96% 30.13 in 10.0 mi WNW 6.9 mph - N/A   Overcast
2:33 AM 26.6 °F 21.2 °F 26.6 °F 100% 30.09 in 10.0 mi West 4.6 mph - N/A   Scattered Clouds
2:55 AM 28.0 °F 22.8 °F 27.0 °F 96% 30.13 in 10.0 mi NW 4.6 mph - N/A   Scattered Clouds
3:55 AM 25.0 °F 18.1 °F 24.1 °F 96% 30.13 in 10.0 mi WNW 5.8 mph - N/A   Scattered Clouds
4:55 AM 25.0 °F 18.1 °F 24.1 °F 96% 30.14 in 6.0 mi WNW 5.8 mph - N/A   Clear
5:55 AM 25.0 °F 19.3 °F 25.0 °F 100% 30.15 in 10.0 mi NNW 4.6 mph - N/A   Clear
6:36 AM 24.8 °F - 24.8 °F 100% 30.11 in 1.8 mi Calm Calm - N/A   Clear
6:48 AM 24.8 °F 20.5 °F 24.8 °F 100% 30.12 in 0.8 mi West 3.5 mph - N/A   Mist
6:55 AM 25.0 °F - 25.0 °F 100% 30.17 in 0.2 mi Calm Calm - N/A Fog Light Freezing Fog
7:55 AM 26.1 °F - 26.1 °F 100% 30.17 in 0.2 mi Calm Calm - N/A Fog Light Freezing Fog
8:30 AM 26.6 °F 21.2 °F 26.6 °F 100% 30.14 in 1.2 mi WNW 4.6 mph - N/A   Scattered Clouds
8:33 AM 26.6 °F 20.0 °F 26.6 °F 100% 30.14 in 3.0 mi WNW 5.8 mph - N/A   Scattered Clouds
8:55 AM 28.9 °F 23.9 °F 28.0 °F 96% 30.18 in 9.0 mi WNW 4.6 mph - N/A   Clear
9:10 AM 28.4 °F 22.2 °F 28.4 °F 100% 30.14 in 9.0 mi WNW 5.8 mph - N/A   Scattered Clouds
9:19 AM 28.4 °F 23.3 °F 28.4 °F 100% 30.14 in 9.0 mi West 4.6 mph - N/A   Mostly Cloudy
9:39 AM 28.4 °F 24.6 °F 28.4 °F 100% 30.14 in 10.0 mi WNW 3.5 mph - N/A   Scattered Clouds
9:55 AM 30.0 °F - 30.0 °F 100% 30.18 in 10.0 mi Calm Calm - N/A   Clear
10:19 AM 32.0 °F - 30.2 °F 93% 30.14 in 10.0 mi Calm Calm - N/A   Partly Cloudy
10:41 AM 32.0 °F - 30.2 °F 93% 30.14 in 10.0 mi Calm Calm - N/A   Mostly Cloudy
10:55 AM 32.0 °F - 30.0 °F 92% 30.18 in 10.0 mi Calm Calm - N/A   Overcast
11:13 AM 33.8 °F - 30.2 °F 87% 30.14 in 10.0 mi Calm Calm - N/A   Scattered Clouds
12:55 PM 39.9 °F - 33.1 °F 77% 30.13 in 10.0 mi Calm Calm - N/A   Clear
1:55 PM 43.0 °F 40.3 °F 33.1 °F 68% 30.11 in 10.0 mi South 4.6 mph - N/A   Clear
2:55 PM 46.0 °F 43.9 °F 33.1 °F 61% 30.10 in 10.0 mi WSW 4.6 mph - N/A   Clear
3:55 PM 46.9 °F - 32.0 °F 56% 30.09 in 10.0 mi SW 3.5 mph - N/A   Clear
4:55 PM 46.9 °F - 32.0 °F 56% 30.08 in 10.0 mi West 5.8 mph - N/A   Clear
5:55 PM 43.0 °F 40.3 °F 33.1 °F 68% 30.09 in 10.0 mi WNW 4.6 mph - N/A   Clear
6:55 PM 39.9 °F - 30.0 °F 68% 30.10 in 10.0 mi Calm Calm - N/A   Clear
7:55 PM 37.0 °F 31.6 °F 27.0 °F 67% 30.11 in 10.0 mi WNW 6.9 mph - N/A   Clear
8:55 PM 34.0 °F 29.8 °F 25.0 °F 70% 30.11 in 10.0 mi North 4.6 mph - N/A   Clear
10:55 PM 35.1 °F 27.4 °F 24.1 °F 64% 30.09 in 10.0 mi NNW 10.4 mph - N/A   Clear
11:55 PM 34.0 °F 26.0 °F 24.1 °F 67% 30.08 in 10.0 mi WNW 10.4 mph - N/A   Clear